Weather History for Aberdeen, SD

Change the Weather History Date:

Tuesday, July 2, 2013

  Actual Average Record
Temperature  
Mean Temperature 72 °F 70 °F  
Max Temperature 87 °F 82 °F 103 °F (1949)
Min Temperature 56 °F 58 °F 37 °F (1945)
Degree Days  
Heating Degree Days 0 1  
Month to date heating degree days 0 2  
Since 1 June heating degree days 81 78  
Since 1 July heating degree days 0 2  
Cooling Degree Days 7 6  
Month to date cooling degree days 10 12  
Year to date cooling degree days 127 127  
Since 1 June cooling degree days 106 104  
Growing Degree Days 22 (Base 50)    
Moisture  
Dew Point 52 °F    
Average Humidity 60    
Maximum Humidity 93    
Minimum Humidity 27    
Precipitation  
Precipitation 0.00 in 0.11 in 1.33 in (2000)
Month to date precipitation 0.00 0.21  
Year to date precipitation 10.72 11.05  
Sea Level Pressure  
Sea Level Pressure 30.12 in    
Wind  
Wind Speed 2 mph (ESE)    
Max Wind Speed 9 mph    
Max Gust Speed 13 mph    
Visibility 10 miles    
Events      
T = Trace of Precipitation, MM = Missing Value Source: NWS Daily Summary

Daily Weather History Graph

Daily Weather History Graph

Search for Another Location

Airport:

Trip Planner

Search our weather history database for the weather conditions in past years. The results will help you decide how hot, cold, wet, or windy it might be!

Date:

Astronomy

Jul. 02, 2013 Rise Set
Actual Time 5:49 AM CDT 9:25 PM CDT
Civil Twilight 5:12 AM CDT 10:03 PM CDT
Nautical Twilight 4:22 AM CDT 10:52 PM CDT
Astronomical Twilight 3:15 AM CDT 11:58 PM CDT
Moon 2:01 AM CDT (7/2) 4:33 PM CDT (7/2)
Length of Visible Light 16h 50m
Length of Day
15h 35m
Waning Crescent, 26% of the Moon is Illuminated
Jul 2
Waning Crescent
Jul 8
New
Jul 15
First Quarter
Jul 22
Full
Jul 29
Last Quarter

Hourly Weather History & Observations

Time (CDT) Temp. Heat Index Dew Point Humidity Pressure Visibility Wind Dir Wind Speed Gust Speed Precip Events Conditions
12:53 AM 61.0 °F - 55.0 °F 81% 30.17 in 10.0 mi Calm Calm - N/A   Partly Cloudy
1:53 AM 61.0 °F - 54.0 °F 78% 30.17 in 10.0 mi Calm Calm - N/A   Mostly Cloudy
2:53 AM 60.1 °F - 55.0 °F 83% 30.17 in 10.0 mi WNW 3.5 mph - N/A   Mostly Cloudy
3:53 AM 57.9 °F - 55.0 °F 90% 30.17 in 10.0 mi Calm Calm - N/A   Partly Cloudy
4:53 AM 57.9 °F - 55.0 °F 90% 30.17 in 10.0 mi Calm Calm - N/A   Mostly Cloudy
5:53 AM 57.0 °F - 53.1 °F 87% 30.17 in 10.0 mi Calm Calm - N/A   Partly Cloudy
6:53 AM 60.1 °F - 55.0 °F 83% 30.17 in 10.0 mi Calm Calm - N/A   Mostly Cloudy
7:53 AM 64.0 °F - 57.0 °F 78% 30.17 in 6.0 mi Calm Calm - N/A   Haze
9:53 AM 73.9 °F - 57.0 °F 55% 30.16 in 8.0 mi Calm Calm - N/A   Clear
10:53 AM 80.1 °F 80.2 °F 55.9 °F 43% 30.15 in 10.0 mi Calm Calm - N/A   Clear
11:53 AM 80.1 °F 79.9 °F 53.1 °F 39% 30.15 in 9.0 mi SE 4.6 mph - N/A   Partly Cloudy
12:53 PM 84.9 °F - 48.0 °F 28% 30.14 in 10.0 mi NNE 5.8 mph - N/A   Mostly Cloudy
1:53 PM 84.9 °F - 46.0 °F 26% 30.13 in 8.0 mi Calm Calm - N/A   Partly Cloudy
2:53 PM 84.0 °F - 46.0 °F 26% 30.12 in 10.0 mi Calm Calm - N/A   Mostly Cloudy
3:53 PM 84.0 °F - 46.9 °F 27% 30.10 in 9.0 mi Calm Calm - N/A   Clear
4:53 PM 82.0 °F - 48.0 °F 30% 30.09 in 10.0 mi SE 4.6 mph - N/A   Clear
5:53 PM 84.0 °F - 46.9 °F 27% 30.07 in 10.0 mi Variable 3.5 mph - N/A   Clear
6:53 PM 82.9 °F - 46.0 °F 27% 30.06 in 10.0 mi East 3.5 mph - N/A   Clear
7:53 PM 81.0 °F - 52.0 °F 36% 30.05 in 10.0 mi ESE 4.6 mph - N/A   Clear
8:53 PM 73.9 °F - 55.0 °F 52% 30.05 in 10.0 mi ESE 5.8 mph - N/A   Clear
9:53 PM 66.9 °F - 55.9 °F 68% 30.06 in 10.0 mi ESE 4.6 mph - N/A   Clear
10:53 PM 64.0 °F - 55.0 °F 73% 30.06 in 10.0 mi SE 4.6 mph - N/A   Clear
11:53 PM 62.1 °F - 55.0 °F 78% 30.05 in 10.0 mi SE 4.6 mph - N/A   Clear